Rochelle, IL

4:48 AM CST on November 13, 2019 (GMT -0600)
Rochelle

Weather History for KRPJ - September, 2019

Change the Weather History Date:

Sunday, September 29, 2019

  Actual Average (KRFD) Record (KRFD)
Temperature  
Mean Temperature 60 °F -  
Max Temperature 65 °F 69 °F 94 °F (1953)
Min Temperature 54 °F 47 °F 28 °F (1949)
Degree Days  
Heating Degree Days 6    
Growing Degree Days 10 (Base 50)    
Moisture  
Dew Point 62 °F    
Average Humidity 100    
Maximum Humidity 100    
Minimum Humidity 97    
Precipitation  
Precipitation 0.27 in - - ()
Sea Level Pressure  
Sea Level Pressure 30.13 in    
Wind  
Wind Speed 7 mph ()    
Max Wind Speed 13 mph    
Max Gust Speed 17 mph    
Visibility 5.5 miles    
Events Fog , Rain , Thunderstorm    
Averages and records for this station are not official NWS values.
T = Trace of Precipitation, MM = Missing Value Source: Averaged Metar Reports

Daily Weather History Graph

Daily Weather History Graph

Search for Another Location

Airport or City:

Astronomy

Sep. 29, 2019 Rise Set
Actual Time 6:50 AM CDT 6:41 PM CDT
Civil Twilight 6:23 AM CDT 7:09 PM CDT
Nautical Twilight 5:50 AM CDT 7:41 PM CDT
Astronomical Twilight 5:17 AM CDT 8:14 PM CDT
Moon 7:41 AM CDT (9/29) 7:41 PM CDT (9/29)
Length of Visible Light 12h 46m
Length of Day
11h 50m
New Moon, 1% of the Moon is Illuminated
Sep 29
New Moon
Oct 5
First Quarter
Oct 13
Full
Oct 21
Last Quarter
Oct 27
New

Hourly Weather History & Observations

Time (CDT) Temp. Dew Point Humidity Pressure Visibility Wind Dir Wind Speed Gust Speed Precip Events Conditions
12:15 AM 54.5 °F 53.6 °F 97% 30.19 in 5.0 mi NE 5.8 mph - 0.05 in Rain Rain
12:30 AM 54.3 °F 54.0 °F 99% 30.18 in 10.0 mi ENE 11.5 mph - 0.06 in Rain Light Rain
12:55 AM 54.7 °F 54.5 °F 99% 30.17 in 10.0 mi NE 9.2 mph - 0.06 in Rain Light Rain
1:15 AM 55.4 °F 55.0 °F 99% 30.17 in 10.0 mi ENE 11.5 mph - N/A Thunderstorm Thunderstorm
1:35 AM 55.6 °F 55.4 °F 99% 30.16 in 10.0 mi ENE 10.4 mph - N/A   Overcast
1:55 AM 55.9 °F 55.8 °F 99% 30.15 in 10.0 mi ENE 10.4 mph - N/A   Overcast
2:15 AM 56.7 °F 56.7 °F 100% 30.15 in 10.0 mi ENE 9.2 mph - N/A   Overcast
2:35 AM 57.4 °F 57.4 °F 100% 30.14 in 10.0 mi ENE 9.2 mph - N/A Rain Light Rain
2:55 AM 58.1 °F 58.1 °F 100% 30.14 in 10.0 mi ENE 6.9 mph - N/A Rain Light Rain
3:15 AM 58.6 °F 58.5 °F 99% 30.14 in 10.0 mi East 6.9 mph - N/A   Overcast
3:35 AM 59.0 °F 58.8 °F 99% 30.14 in 3.0 mi ENE 6.9 mph - 0.07 in Rain Heavy Rain
3:55 AM 59.2 °F 59.0 °F 99% 30.14 in 7.0 mi NE 5.8 mph - 0.20 in Rain Rain
4:15 AM 59.4 °F 59.4 °F 100% 30.13 in 10.0 mi ENE 10.4 mph - N/A   Overcast
4:35 AM 59.7 °F 59.7 °F 100% 30.13 in 10.0 mi East 11.5 mph - N/A Rain Light Rain
4:55 AM 59.9 °F 59.9 °F 100% 30.14 in 10.0 mi ENE 11.5 mph - N/A   Overcast
5:15 AM 59.9 °F 59.9 °F 100% 30.14 in 10.0 mi ENE 8.1 mph - N/A   Light Drizzle
5:35 AM 60.1 °F 60.1 °F 100% 30.14 in 10.0 mi ENE 9.2 mph - N/A   Overcast
5:55 AM 59.9 °F 59.9 °F 100% 30.15 in 10.0 mi ENE 8.1 mph - N/A   Overcast
6:15 AM 60.1 °F 60.1 °F 100% 30.15 in 10.0 mi East 10.4 mph - N/A   Overcast
6:35 AM 60.3 °F 60.3 °F 100% 30.16 in 10.0 mi ENE 5.8 mph - N/A   Overcast
6:55 AM 60.6 °F 60.6 °F 100% 30.16 in 10.0 mi ENE 8.1 mph - N/A   Overcast
7:15 AM 60.8 °F 60.8 °F 100% 30.16 in 10.0 mi East 9.2 mph - N/A   Overcast
7:35 AM 60.8 °F 60.8 °F 100% 30.16 in 10.0 mi East 9.2 mph - N/A   Overcast
7:55 AM 60.8 °F 60.8 °F 100% 30.16 in 2.0 mi East 10.4 mph - N/A   Drizzle
8:15 AM 61.0 °F 61.0 °F 100% 30.15 in 7.0 mi East 9.2 mph - 0.01 in   Overcast
8:35 AM 61.3 °F 61.3 °F 100% 30.15 in 7.0 mi East 12.7 mph - 0.01 in   Overcast
8:55 AM 61.7 °F 61.7 °F 100% 30.15 in 7.0 mi East 9.2 mph - 0.01 in   Overcast
9:15 AM 61.7 °F 61.7 °F 100% 30.16 in 7.0 mi East 8.1 mph - N/A   Overcast
9:35 AM 61.9 °F 61.9 °F 100% 30.16 in 7.0 mi East 9.2 mph - N/A   Overcast
9:55 AM 62.1 °F 62.1 °F 100% 30.15 in 7.0 mi East 12.7 mph 17.3 mph N/A   Overcast
10:15 AM 62.4 °F 62.4 °F 100% 30.15 in 4.0 mi East 10.4 mph - N/A   Overcast
10:35 AM 62.6 °F 62.6 °F 100% 30.14 in 4.0 mi East 6.9 mph - N/A   Overcast
10:55 AM 63.0 °F 63.0 °F 100% 30.14 in 3.0 mi ESE 4.6 mph 17.3 mph N/A   Overcast
11:15 AM 63.3 °F 63.3 °F 100% 30.14 in 4.0 mi ESE 8.1 mph - N/A   Overcast
11:35 AM 64.0 °F 63.7 °F 99% 30.14 in 7.0 mi ESE 11.5 mph - N/A   Overcast
11:50 AM 64.4 °F 64.0 °F 99% 30.14 in 7.0 mi ESE 8.1 mph - N/A   Overcast
12:15 PM 64.6 °F 64.0 °F 98% 30.14 in 7.0 mi ESE 11.5 mph - N/A   Overcast
12:55 PM 64.6 °F 64.6 °F 100% 30.13 in 1.8 mi ESE 6.9 mph - N/A   Light Drizzle
1:15 PM 64.8 °F 64.8 °F 100% 30.13 in 5.0 mi ESE 8.1 mph - N/A   Overcast
1:35 PM 65.3 °F 65.3 °F 100% 30.12 in 5.0 mi ESE 4.6 mph - N/A   Overcast
2:15 PM 65.7 °F 65.5 °F 99% 30.12 in 4.0 mi ESE 5.8 mph - N/A   Overcast
2:35 PM 65.7 °F 65.3 °F 99% 30.12 in 4.0 mi ESE 6.9 mph - N/A   Overcast
2:55 PM 65.7 °F 65.5 °F 99% 30.12 in 4.0 mi East 4.6 mph - N/A   Overcast
3:15 PM 65.7 °F 65.5 °F 99% 30.11 in 3.0 mi East 6.9 mph - N/A   Overcast
3:35 PM 65.1 °F 65.1 °F 100% 30.11 in 2.0 mi East 5.8 mph - N/A   Overcast
3:55 PM 64.6 °F 64.6 °F 100% 30.11 in - ENE 8.1 mph - N/A   Unknown
4:15 PM 64.8 °F 64.8 °F 100% 30.09 in 2.0 mi East 9.2 mph - N/A   Overcast
4:35 PM 64.9 °F 64.9 °F 100% 30.10 in 2.5 mi East 6.9 mph - N/A   Overcast
4:55 PM 65.3 °F 65.3 °F 100% 30.10 in 2.5 mi SE 4.6 mph - N/A   Overcast
5:15 PM 65.3 °F 65.3 °F 100% 30.10 in 2.5 mi ESE 4.6 mph - N/A Rain Rain
5:35 PM 65.3 °F 65.3 °F 100% 30.09 in 2.0 mi East 5.8 mph - N/A   Drizzle
5:55 PM 65.1 °F 65.1 °F 100% 30.09 in 1.8 mi East 3.5 mph - N/A Rain Light Rain
6:15 PM 64.9 °F 64.9 °F 100% 30.09 in 2.0 mi East 4.6 mph - N/A Rain Light Rain
6:35 PM 64.8 °F 64.8 °F 100% 30.07 in 2.0 mi East 8.1 mph - N/A Rain Light Rain
6:55 PM 64.4 °F 64.4 °F 100% 30.09 in 3.0 mi ENE 3.5 mph - N/A   Overcast
7:15 PM 64.6 °F 64.6 °F 100% 30.09 in 3.0 mi ESE 4.6 mph - N/A   Overcast
7:35 PM 64.4 °F 64.4 °F 100% 30.09 in 3.0 mi East 4.6 mph - N/A   Overcast
7:55 PM 64.6 °F 64.6 °F 100% 30.10 in 3.0 mi ENE 3.5 mph - N/A   Overcast
8:15 PM 64.8 °F 64.8 °F 100% 30.10 in 3.0 mi East 4.6 mph - N/A   Overcast
8:35 PM 64.8 °F 64.8 °F 100% 30.10 in 3.0 mi East 5.8 mph - N/A   Overcast
8:55 PM 64.9 °F 64.9 °F 100% 30.10 in 3.0 mi East 5.8 mph - N/A   Overcast
9:15 PM 65.3 °F 65.3 °F 100% 30.11 in 3.0 mi East 5.8 mph - N/A   Overcast
9:35 PM 65.3 °F 65.3 °F 100% 30.10 in 2.5 mi ESE 4.6 mph - N/A   Overcast
9:55 PM 65.3 °F 65.3 °F 100% 30.10 in 1.8 mi East 5.8 mph - N/A   Overcast
10:15 PM 65.3 °F 65.3 °F 100% 30.09 in 1.5 mi East 5.8 mph - N/A   Overcast
10:30 PM 65.3 °F 65.3 °F 100% 30.09 in 1.5 mi ESE 4.6 mph - N/A   Overcast
10:55 PM 65.3 °F 65.3 °F 100% 30.09 in 1.8 mi East 4.6 mph - N/A   Overcast
11:15 PM 65.5 °F 65.5 °F 100% 30.09 in 1.2 mi East 4.6 mph - N/A   Overcast
11:35 PM 65.7 °F 65.7 °F 100% 30.09 in 0.5 mi East 4.6 mph - N/A Fog Fog
11:55 PM 65.8 °F 65.8 °F 100% 30.09 in 0.2 mi East 3.5 mph - N/A Fog Fog